星链-37452(STARLINK-37452)

导读

STARLINK-37452(NORAD编号68840)是美国SpaceX公司星链(Starlink)星座的一颗低轨互联网通信卫星。星链项目旨在构建覆盖全球的低成本、高性能天基互联网系统,为全球用户提供高速低延迟的网络接入服务。作为星链星座的组成部分,该卫星运行在近地轨道,依托星座组网,支持偏远地区网络覆盖、海上及航空移动互联网服务等应用,是SpaceX大规模低轨卫星互联网部署中的一员,助力星链实现全球互联的建设目标。

Basic Information
目录编号:
68840
目录名称:
STARLINK-37452
国际标识:
2026-094B
轨道中心:
EARTH
卫星名称:
星链-37452
卫星全名:
星链-37452(STARLINK-37452)
卫星状态:
在轨 (已飞行140 天)
发射日期:
2026-04-26 UTC
国别 :
美国 (US)
星等 :
--
This satellite is enrolled in the Space Conjunction Data Service (SCDS) and the current flight risk assessment level is: No High Risk
Orbit Information
数据来源 国际轨道数据 AOE轨道数据
星历时间 2026-09-12T14:40:22+0800
20小时前
查看轨道信息
2026-09-07T01:00:00+0800
6天前
查看轨道信息
半长轴 6843.702km 6843.708km
偏心率 0.0001674 0.0001484
轨道倾角 97.282° 97.284°
近地点辐角 89.450° 96.775°
升交点赤经 268.460° 262.971°
平近点角 270.694° 136.504°
近地点 464.419km 464.555km
远地点 466.711km 466.587km
周期 93.907分钟 93.907分钟
每日圈数 15.33438 15.334359
Detailed Information
固有亮度:
5
最大亮度:
2.5
卫星平台:
Starlink V1.0
覆盖范围:
全球
运营商:
太空探索技术公司
运营商所在国:
美国
制造商(研发单位):
太空探索技术公司
制造商所在国:
美国
使用方式:
暂无
Satellite Introduction
Starlink 计划是 SpaceX 推出的全球卫星互联网项目,通过发射低轨道卫星,为全球尤其是偏远地区提供高速、低延迟的互联网服务。自 2019 年起,Starlink 已部署数千颗卫星,旨在缩小全球数字鸿沟,推动互联网普及。该项目还为军事、航空等行业提供通信支持,带来广泛经济效益。
2D Orbit Map
3D Orbit Map
Orbit Altitude Analysis Chart
Orbit Inclination Analysis Chart
Orbit Comprehensive Analysis Chart
View Comprehensive Chart
Conjunction Data List
Event ID Objects TCA Miss Dist (km) Collision Risk Probability Collision Risk Index (CRI) Action
CDM_260915-073004-781006-884021
2026-09-15T
07:30:26+0000
2.829 km
极远距离
1.4413E-6 低风险 0.38
CDM_260914-153706-533706-884022
2026-09-14T
15:37:57+0000
2.901 km
极远距离
1.346738E-6 低风险 0.38
Miss Distance Evolution Trend with All Objects
Collision Probability Evolution Trend with All Objects